SDSAT (47721 NORAD) Tracking and Keplerian Element Data
This shows tracking and keplerian element data for the satellite.
Feedback or suggestion? Click here.
Element | Value |
Catalog | 47721 |
Name | SDSAT |
Epoch Orbit | 616 |
Epoch Day | 99.91897956 |
Epoch Year | 2021 |
RAAN | 174.8667 |
Inclination | 97.4644 |
Eccentricity | 0.0013665 |
Argument of Perigee | 132.8898 |
Mean Anonmoly | 227.3839 |
Mean Motion | 15.20536331 |
Decay Rate | -7E-07 |
L1 | 1 47721U 21015W 21099.91897956 -.00000070 00000-0 00000-0 0 9993 |
L2 | 2 47721 97.4644 174.8667 0013665 132.8898 227.3839 15.20536331 6162 |
Live tracking and technical data element details for SDSAT (NORAD 47721). SDSAT can be tracked NOW for your location showing map with azimuth and elevation plus other details from your city location.
Track the satellite on the map from your city or location and see movement details for azimuth, elevation, latitude, longitude, range, height, and movement on the map or in text.
IsCatalogInMostPopularTable: catalog: 47721, numindb: 7
Update: records affected: 1
GetName: 47721 SDSAT
Hit Count: updated at: Sat, 10 Apr 2021 19:19:22 GMT